Weather History for Glasgow, MT

Change the Weather History Date:

Tuesday, February 5, 2013

  Actual Average Record
Temperature  
Mean Temperature 26 °F 16 °F  
Max Temperature 33 °F 26 °F 54 °F (1898)
Min Temperature 18 °F 7 °F -35 °F (1929)
Degree Days  
Heating Degree Days 39 49  
Month to date heating degree days 202 245  
Since 1 July heating degree days 5272 5334  
Cooling Degree Days 0 0  
Month to date cooling degree days 0 0  
Year to date cooling degree days 0 0  
Moisture  
Dew Point 23 °F    
Average Humidity 82    
Maximum Humidity 92    
Minimum Humidity 72    
Precipitation  
Precipitation 0.00 in 0.01 in 0.50 in (1902)
Month to date precipitation 0.04 0.04  
Year to date precipitation 0.60 0.41  
Snow  
Snow 0.00 in 0.20 in 1.40 in (1955)
Month to date snowfall 0.7 0.8  
Since 1 July snowfall 36.5 23.4  
Snow Depth 1.00 in    
Sea Level Pressure  
Sea Level Pressure 29.88 in    
Wind  
Wind Speed 8 mph (ESE)    
Max Wind Speed 17 mph    
Max Gust Speed 20 mph    
Visibility 10 miles    
Events      
T = Trace of Precipitation, MM = Missing Value Source: NWS Daily Summary

Daily Weather History Graph

Daily Weather History Graph

Search for Another Location

Airport:

Trip Planner

Search our weather history database for the weather conditions in past years. The results will help you decide how hot, cold, wet, or windy it might be!

Date:

Astronomy

Feb. 05, 2013 Rise Set
Actual Time 7:28 AM MST 5:13 PM MST
Civil Twilight 6:55 AM MST 5:46 PM MST
Nautical Twilight 6:18 AM MST 6:23 PM MST
Astronomical Twilight 5:42 AM MST 6:59 PM MST
Moon 3:22 AM MST (2/5) 12:23 PM MST (2/5)
Length of Visible Light 10h 50m
Length of Day
9h 44m
Waning Crescent, 26% of the Moon is Illuminated
Feb 5
Waning Crescent
Feb 10
New
Feb 17
First Quarter
Feb 25
Full
Mar 4
Last Quarter

Hourly Weather History & Observations

Time (MST) Temp. Windchill Dew Point Humidity Pressure Visibility Wind Dir Wind Speed Gust Speed Precip Events Conditions
12:53 AM 32.0 °F 21.2 °F 25.0 °F 75% 29.93 in 10.0 mi WNW 16.1 mph - N/A   Overcast
1:53 AM 30.0 °F 24.1 °F 24.1 °F 79% 29.96 in 10.0 mi West 5.8 mph - N/A   Overcast
2:53 AM 26.1 °F 16.2 °F 21.9 °F 84% 29.97 in 10.0 mi West 10.4 mph - N/A   Partly Cloudy
3:53 AM 25.0 °F 17.1 °F 21.9 °F 88% 29.98 in 10.0 mi NW 6.9 mph - N/A   Scattered Clouds
4:53 AM 23.0 °F 15.8 °F 19.9 °F 88% 29.99 in 10.0 mi West 5.8 mph - N/A   Scattered Clouds
5:53 AM 19.9 °F - 18.0 °F 92% 30.00 in 10.0 mi Calm Calm - N/A   Clear
6:53 AM 21.0 °F - 19.0 °F 92% 30.01 in 10.0 mi Calm Calm - N/A   Partly Cloudy
7:53 AM 21.9 °F - 19.9 °F 92% 30.01 in 10.0 mi Calm Calm - N/A   Overcast
8:53 AM 24.1 °F - 21.0 °F 88% 30.01 in 10.0 mi Calm Calm - N/A   Overcast
9:53 AM 28.0 °F - 23.0 °F 81% 30.00 in 10.0 mi Calm Calm - N/A   Overcast
10:53 AM 28.0 °F 21.7 °F 23.0 °F 81% 29.99 in 10.0 mi SSE 5.8 mph - N/A   Scattered Clouds
11:53 AM 28.9 °F 20.4 °F 24.1 °F 82% 29.96 in 10.0 mi ESE 9.2 mph - N/A   Scattered Clouds
12:53 PM 30.9 °F 22.2 °F 25.0 °F 79% 29.91 in 10.0 mi SE 10.4 mph - N/A   Overcast
1:53 PM 33.1 °F 23.9 °F 26.1 °F 75% 29.87 in 10.0 mi ESE 12.7 mph - N/A   Overcast
2:53 PM 32.0 °F 22.5 °F 26.1 °F 79% 29.84 in 10.0 mi ESE 12.7 mph - N/A   Clear
3:53 PM 32.0 °F 22.1 °F 26.1 °F 79% 29.81 in 10.0 mi ESE 13.8 mph - N/A   Scattered Clouds
4:53 PM 30.0 °F 19.1 °F 26.1 °F 85% 29.80 in 10.0 mi ESE 15.0 mph - N/A   Clear
5:53 PM 28.0 °F 16.5 °F 24.1 °F 85% 29.79 in 10.0 mi East 15.0 mph - N/A   Clear
6:53 PM 27.0 °F 16.1 °F 24.1 °F 89% 29.78 in 10.0 mi East 12.7 mph - N/A   Mostly Cloudy
7:53 PM 28.0 °F 18.1 °F 24.1 °F 85% 29.75 in 10.0 mi East 11.5 mph - N/A   Overcast
8:53 PM 28.9 °F 18.6 °F 25.0 °F 85% 29.73 in 10.0 mi ESE 12.7 mph - N/A   Mostly Cloudy
9:53 PM 28.9 °F 19.8 °F 26.1 °F 89% 29.72 in 10.0 mi ESE 10.4 mph - N/A   Overcast
10:53 PM 27.0 °F 18.7 °F 24.1 °F 89% 29.71 in 10.0 mi ESE 8.1 mph - N/A   Clear
11:53 PM 25.0 °F 16.3 °F 23.0 °F 92% 29.72 in 10.0 mi SE 8.1 mph - N/A   Clear